Simultaneous Nadir Overpasses (SNOs) Predictions

Prediction of SNOs between AQUA and GOES-15 Satellite Orbit:

Table of predicted SNOs for the next 14.0 days since TLE Epoch: 2/21/2020
Index Date Time (AQUA) AQUA Lat,Lon GOES-15 Lat,Lon Distance(km) Time Diff (sec)
1 02/21/2020 22:22:44 -0.31,-131.72 0.36,-128.44 372.20 80
2 02/23/2020 22:10:35 0.32,-128.77 0.36,-128.45 35.01 80
3 02/25/2020 21:58:24 0.90,-125.80 0.36,-128.46 302.22 80
4 02/26/2020 10:19:39 0.20,-130.96 -0.36,-128.44 286.59 80
5 02/28/2020 10:07:29 -0.44,-128.00 -0.36,-128.45 50.00 80
6 03/01/2020 09:55:20 -1.08,-125.05 -0.36,-128.45 385.95 80
7 03/01/2020 22:16:43 -0.02,-130.24 0.36,-128.47 201.98 80
8 03/03/2020 22:04:32 0.57,-127.28 0.35,-128.46 133.21 80
9 03/04/2020 10:25:49 0.48,-132.45 -0.35,-128.43 455.81 80
10 03/05/2020 21:52:22 1.23,-124.33 0.34,-128.44 467.59 80
11 03/06/2020 10:13:38 -0.11,-129.48 -0.34,-128.41 121.61 80




NCC Satellite Simultaneous Nadir Overpasses (SNOs) Prediction Service
